• In Uzbekistan
  • List of Countries
  • For 7 days
  • Water Temperature
  • Satellite Maps
  • Weather Map
  • Weather Widgets
  • user-avatar
    Login

    Hourly Weather Nuuk

    Today, 23 February, Friday

    Time Temperature Precipitation Wind Pressure Humidity
    00:00 -32°C° 0 mm 4 mps 745 mmHg 85%
    01:00 -32°C° 0 mm 4 mps 746 mmHg 85%
    02:00 -33°C° 0 mm 4 mps 746 mmHg 85%
    03:00 -33°C° 0 mm 4 mps 746 mmHg 85%
    04:00 -33°C° 0 mm 4 mps 746 mmHg 85%
    05:00 -33°C° 0 mm 4 mps 746 mmHg 85%
    06:00 -33°C° 0 mm 4 mps 747 mmHg 85%
    07:00 -33°C° 0 mm 4 mps 747 mmHg 84%
    08:00 -33°C° 0 mm 4 mps 747 mmHg 83%
    09:00 -33°C° 0 mm 4 mps 747 mmHg 82%
    10:00 -32°C° 0 mm 4 mps 747 mmHg 81%
    11:00 -31°C° 0 mm 4 mps 746 mmHg 80%
    12:00 -30°C° 0 mm 4 mps 746 mmHg 79%
    13:00 -30°C° 0 mm 4 mps 746 mmHg 80%
    14:00 -30°C° 0 mm 4 mps 745 mmHg 81%
    15:00 -31°C° 0 mm 5 mps 745 mmHg 81%
    16:00 -33°C° 0 mm 5 mps 744 mmHg 81%
    17:00 -34°C° 0 mm 5 mps 744 mmHg 80%
    18:00 -35°C° 0 mm 5 mps 744 mmHg 80%
    19:00 -35°C° 0 mm 5 mps 743 mmHg 79%
    20:00 -35°C° 0 mm 5 mps 742 mmHg 79%
    21:00 -35°C° 0 mm 5 mps 741 mmHg 78%
    22:00 -37°C° 0 mm 5 mps 740 mmHg 76%
    23:00 -37°C° 0 mm 5 mps 738 mmHg 74%

    Tomorrow, 24 February, Saturday

    Time Temperature Precipitation Wind Pressure Humidity
    00:00 -37°C° 0 mm 5 mps 737 mmHg 72%
    01:00 -35°C° 0 mm 5 mps 736 mmHg 70%
    02:00 -34°C° 0 mm 5 mps 735 mmHg 69%
    03:00 -34°C° 0 mm 5 mps 734 mmHg 67%
    04:00 -33°C° 0 mm 5 mps 734 mmHg 69%
    05:00 -33°C° 0 mm 5 mps 733 mmHg 71%
    06:00 -32°C° 0 mm 5 mps 733 mmHg 73%
    07:00 -32°C° 0 mm 5 mps 732 mmHg 76%
    08:00 -33°C° 0 mm 6 mps 732 mmHg 80%
    09:00 -31°C° 0 mm 6 mps 731 mmHg 83%
    10:00 -31°C° 0.1 mm 6 mps 731 mmHg 86%
    11:00 -30°C° 0.1 mm 6 mps 731 mmHg 88%
    12:00 -29°C° 0.1 mm 6 mps 731 mmHg 90%
    13:00 -29°C° 0.1 mm 6 mps 732 mmHg 91%
    14:00 -28°C° 0.1 mm 6 mps 733 mmHg 91%
    15:00 -28°C° 0.1 mm 6 mps 734 mmHg 92%
    16:00 -28°C° 0.1 mm 6 mps 735 mmHg 94%
    17:00 -28°C° 0.1 mm 6 mps 736 mmHg 95%
    18:00 -29°C° 0.1 mm 6 mps 737 mmHg 96%
    19:00 -29°C° 0.2 mm 6 mps 738 mmHg 96%
    20:00 -29°C° 0.2 mm 6 mps 739 mmHg 96%
    21:00 -29°C° 0.2 mm 6 mps 740 mmHg 97%
    22:00 -28°C° 0.1 mm 5 mps 741 mmHg 97%
    23:00 -29°C° 0.1 mm 5 mps 742 mmHg 96%

    Day after tomorrow, 25 February, Sunday

    Time Temperature Precipitation Wind Pressure Humidity
    00:00 -29°C° 0.1 mm 4 mps 743 mmHg 96%
    01:00 -29°C° 0.1 mm 4 mps 745 mmHg 96%
    02:00 -29°C° 0.1 mm 4 mps 746 mmHg 96%
    03:00 -26°C° 0.1 mm 3 mps 748 mmHg 95%
    04:00 -26°C° 0.1 mm 3 mps 750 mmHg 95%
    05:00 -26°C° 0.1 mm 3 mps 751 mmHg 95%
    06:00 -26°C° 0.1 mm 3 mps 753 mmHg 95%
    07:00 -25°C° 0.1 mm 2 mps 754 mmHg 94%
    08:00 -24°C° 0.1 mm 2 mps 755 mmHg 94%
    09:00 -24°C° 0.1 mm 2 mps 757 mmHg 93%
    10:00 -23°C° 0 mm 2 mps 758 mmHg 91%
    11:00 -23°C° 0 mm 2 mps 759 mmHg 88%
    12:00 -21°C° 0 mm 2 mps 760 mmHg 86%
    13:00 -23°C° 0 mm 3 mps 761 mmHg 84%
    14:00 -23°C° 0 mm 3 mps 761 mmHg 83%
    15:00 -23°C° 0 mm 3 mps 762 mmHg 81%
    16:00 -24°C° 0.1 mm 4 mps 763 mmHg 80%
    17:00 -25°C° 0.1 mm 4 mps 764 mmHg 80%
    18:00 -26°C° 0.1 mm 5 mps 765 mmHg 79%
    19:00 -26°C° 0 mm 5 mps 766 mmHg 80%
    20:00 -25°C° 0 mm 4 mps 767 mmHg 82%
    21:00 -25°C° 0 mm 4 mps 767 mmHg 83%
    22:00 -25°C° 0 mm 4 mps 768 mmHg 83%
    23:00 -25°C° 0 mm 4 mps 768 mmHg 82%

    26 February, Monday

    Time Temperature Precipitation Wind Pressure Humidity
    00:00 -25°C° 0 mm 4 mps 768 mmHg 82%
    01:00 -25°C° 0 mm 4 mps 769 mmHg 81%
    02:00 -25°C° 0 mm 4 mps 769 mmHg 79%
    03:00 -27°C° 0 mm 5 mps 769 mmHg 77%
    04:00 -27°C° 0 mm 5 mps 769 mmHg 76%
    05:00 -27°C° 0 mm 5 mps 769 mmHg 74%
    06:00 -27°C° 0 mm 5 mps 769 mmHg 72%
    07:00 -26°C° 0 mm 5 mps 769 mmHg 71%
    08:00 -26°C° 0 mm 5 mps 769 mmHg 70%
    09:00 -26°C° 0 mm 5 mps 769 mmHg 68%
    10:00 -24°C° 0 mm 4 mps 769 mmHg 69%
    11:00 -22°C° 0 mm 4 mps 768 mmHg 69%
    12:00 -20°C° 0 mm 4 mps 768 mmHg 69%
    13:00 -19°C° 0 mm 4 mps 768 mmHg 70%
    14:00 -19°C° 0 mm 4 mps 768 mmHg 70%
    15:00 -19°C° 0 mm 4 mps 767 mmHg 70%
    16:00 -20°C° 0 mm 4 mps 768 mmHg 68%
    17:00 -20°C° 0 mm 4 mps 768 mmHg 65%
    18:00 -22°C° 0 mm 4 mps 768 mmHg 63%
    19:00 -22°C° 0 mm 4 mps 768 mmHg 62%
    20:00 -22°C° 0 mm 5 mps 769 mmHg 62%
    21:00 -22°C° 0 mm 5 mps 769 mmHg 61%
    22:00 -22°C° 0 mm 5 mps 769 mmHg 60%
    23:00 -22°C° 0 mm 5 mps 769 mmHg 60%

    27 February, Tuesday

    Time Temperature Precipitation Wind Pressure Humidity
    00:00 -22°C° 0 mm 5 mps 770 mmHg 59%
    01:00 -22°C° 0 mm 5 mps 770 mmHg 59%
    02:00 -21°C° 0 mm 5 mps 770 mmHg 58%
    03:00 -21°C° 0 mm 5 mps 771 mmHg 58%
    04:00 -21°C° 0 mm 5 mps 771 mmHg 57%
    05:00 -21°C° 0 mm 5 mps 771 mmHg 56%
    06:00 -21°C° 0 mm 5 mps 772 mmHg 55%
    07:00 -20°C° 0 mm 5 mps 772 mmHg 55%
    08:00 -20°C° 0 mm 5 mps 772 mmHg 55%
    09:00 -19°C° 0 mm 5 mps 772 mmHg 55%
    10:00 -17°C° 0 mm 4 mps 772 mmHg 57%
    11:00 -15°C° 0 mm 4 mps 772 mmHg 59%
    12:00 -13°C° 0 mm 3 mps 772 mmHg 62%
    13:00 -13°C° 0 mm 3 mps 772 mmHg 61%
    14:00 -12°C° 0 mm 3 mps 772 mmHg 61%
    15:00 -12°C° 0 mm 3 mps 772 mmHg 61%
    16:00 -13°C° 0 mm 3 mps 772 mmHg 57%
    17:00 -14°C° 0 mm 3 mps 773 mmHg 53%
    18:00 -14°C° 0 mm 2 mps 773 mmHg 50%
    19:00 -15°C° 0 mm 3 mps 773 mmHg 48%
    20:00 -15°C° 0 mm 3 mps 774 mmHg 46%
    21:00 -15°C° 0 mm 3 mps 774 mmHg 45%
    22:00 -15°C° 0 mm 3 mps 774 mmHg 44%
    23:00 -15°C° 0 mm 3 mps 774 mmHg 44%

    28 February, Wednesday

    Time Temperature Precipitation Wind Pressure Humidity
    00:00 -15°C° 0 mm 3 mps 775 mmHg 43%
    01:00 -15°C° 0 mm 3 mps 775 mmHg 42%
    02:00 -15°C° 0 mm 3 mps 775 mmHg 41%
    03:00 -15°C° 0 mm 3 mps 775 mmHg 40%
    04:00 -14°C° 0 mm 2 mps 775 mmHg 39%
    05:00 -14°C° 0 mm 2 mps 775 mmHg 39%
    06:00 -14°C° 0 mm 2 mps 775 mmHg 38%
    07:00 -14°C° 0 mm 2 mps 775 mmHg 39%
    08:00 -14°C° 0 mm 2 mps 775 mmHg 39%
    09:00 -14°C° 0 mm 2 mps 775 mmHg 40%
    10:00 -12°C° 0 mm 2 mps 775 mmHg 44%
    11:00 -10°C° 0 mm 2 mps 775 mmHg 48%
    12:00 -9°C° 0 mm 2 mps 775 mmHg 52%
    13:00 -9°C° 0 mm 2 mps 775 mmHg 52%
    14:00 -8°C° 0 mm 2 mps 775 mmHg 52%
    15:00 -8°C° 0 mm 2 mps 775 mmHg 51%
    16:00 -9°C° 0 mm 2 mps 775 mmHg 47%
    17:00 -10°C° 0 mm 2 mps 776 mmHg 43%
    18:00 -13°C° 0 mm 3 mps 776 mmHg 38%
    19:00 -13°C° 0 mm 3 mps 777 mmHg 38%
    20:00 -13°C° 0 mm 3 mps 777 mmHg 38%
    21:00 -12°C° 0 mm 3 mps 777 mmHg 37%
    22:00 -12°C° 0 mm 3 mps 777 mmHg 40%
    23:00 -10°C° 0 mm 3 mps 777 mmHg 42%
    Show more